Preview of NWS' New Version of Forecast
This preview is not operational and should not be used for support decisions.

Terminal Aerodrome Forecast (TAF)

Issued by National Weather Service (NWS)

                            
000
FTUS42 KMFL 160534
TAFMIA
TAF
KMIA 160534Z 1606/1712 29003KT P6SM FEW035 BKN050 BKN090
     FM161300 29008KT P6SM FEW035 SCT250
     FM170100 00000KT P6SM FEW250=